Regional Weather Roundup
Issued by NWS Sioux Falls, SD

Home | Current Version | Previous Version | Graphics & Text | Print | Product List | Glossary Off
Versions: 1 2 3 4 5 6 7 8 9 10 11 12 13 14 15 16 17 18 19 20 21 22 23 24 25 26 27 28 29 30 31 32 33 34 35 36 37 38 39 40 41 42 43 44 45 46 47 48 49 50

000
ASUS43 KFSD 221310
RWRFSD

WEATHER ROUNDUP FOR SE SOUTH DAKOTA/SW MINNESOTA/NW IOWA
NATIONAL WEATHER SERVICE SIOUX FALLS SD
800 AM CDT SUN OCT 22 2017

NOTE: "FAIR" INDICATES FEW OR NO CLOUDS BELOW 12,000 FEET WITH NO
SIGNIFICANT WEATHER AND OR OBSTRUCTIONS TO VISIBILITY.


SDZ038>040-050-052>070-221400-
SOUTHEAST SOUTH DAKOTA

CITY           SKY/WX    TMP DP  RH WIND       PRES   REMARKS
BROOKINGS      CLEAR     36  31  82 S6        30.01R
CHAMBERLAIN    CLEAR     33  30  88 CALM      30.02R
HURON          CLEAR     37  31  78 SW9       30.01R
MADISON        FAIR      34  34 100 W10       30.02S WCI  26
MITCHELL       CLEAR     40  30  67 SW9       30.04R
SIOUX FALLS    PTCLDY    38  33  82 W6        30.04R
WINNER         FAIR      40  27  59 SW13      30.01S
YANKTON        CLEAR     36  34  92 CALM      30.06S
$$

MNZ071-072-080-081-089-090-097-098-221400-
SOUTHWEST MINNESOTA

CITY           SKY/WX    TMP DP  RH WIND       PRES   REMARKS
FAIRMONT       CLOUDY    44  39  82 W8        30.02R
JACKSON        PTCLDY    41  36  81 W8        30.03R
LUVERNE        CLEAR     32  30  93 CALM      30.05R
MARSHALL       CLEAR     43  35  73 W12       29.99R
MONTEVIDEO     CLEAR     39  36  87 W7        29.98R
PIPESTONE      CLEAR     32  30  93 CALM      30.01S
REDWOOD FALLS  PTCLDY    43  35  73 SW7       29.98R
TRACY          CLEAR     43  37  79 SW9       30.00R
$$

IAZ001>003-012>014-020>022-031-032-NEZ013-014-SDZ071-221400-
NORTHWEST IOWA

CITY           SKY/WX    TMP DP  RH WIND       PRES   REMARKS
CHEROKEE       CLOUDY    37  37 100 CALM      30.06F
DENISON        CLEAR     41  39  93 CALM      30.09R
ESTHERVILLE    CLOUDY    40  39  97 SW8       30.02R
LE MARS        CLEAR     36  34  93 S5        30.06S
ORANGE CITY    CLOUDY    39  36  87 CALM      30.06R
SHELDON        CLOUDY    32  30  93 CALM      30.04R
SIOUX CITY     CLEAR     34  34 100 CALM      30.08R
SPENCER        CLOUDY    38  35  89 W7        30.04R
STORM LAKE     CLOUDY    41  37  87 W10       30.05S
$$

ABBREVIATIONS USED IN REMARKS
   TC - TEMPERATURE IN CELSIUS
  WCI - WIND CHILL INDEX
   HX - HEAT INDEX
  VSB - VISIBILITY





USA.gov is the U.S. government's official web portal to all federal, state and local government web resources and services.